Content
SEND FEEDBACK

Daily
Averages
Monthly
Summary
United States of America

WILMINGTON, NORTH CAROLINA


Home > North America > United States > North Carolina
Elevation: 72 feet     Latitude: 34 16N     Longitude: 077 54W

WEATHER
 
SELECT A DAY
Number of Records: 208,938;   Date Range: 1/1/95 - 8/12/14
 
SHARE

PRINT THIS DATA

[ ← Previous Day ]
WEATHER ALMANAC - MARCH 20, 2013
[ Next Day → ]
[ °C ]   °F
Weather ElementAverageHighLow
Temperature50.1 °F57.9 °F (1:53 pm)41 °F (11:53 pm)
Dewpoint24.3 °F36 °F (11:53 pm)15.1 °F (1:53 pm)
Humidity39.3 %82 % (11:53 pm)19 % (1:53 pm)
Barometer29.99 in30.12 in (9:53 am)29.82 in (11:53 pm)
Wind Speed4.1 mph12.7 mph (10:53 am)
Weather ElementAverage
Visibility10 mi
Wind DirectionESE (114.3 °)

Weather ElementTotal
Precipitation---
Heating Degree Days15.6 (Base 65)
Averaged from 23 records on March 20, 2013
WEATHER CONDITIONS BREAKOUT
WIND DIRECTION BREAKOUT
WEATHER BY HOUR - MARCH 20, 2013
[ °C ]   °F
Local TimeTemperatureDewpointHumidityBarometerVisibilityWind DirectionWind SpeedGust SpeedPrecipitationEventsConditions
1:53 AM51.1 °F28.9 °F43 %30.00 in10.0 miNorth (350°)6.9 mphClear
2:53 AM51.1 °F27.0 °F39 %30.01 in10.0 miNNW (340°)8.1 mphClear
3:53 AM48.0 °F27.0 °F44 %30.00 in10.0 miNNW (330°)4.6 mphClear
4:53 AM48.9 °F21.0 °F33 %30.01 in10.0 miNorth (360°)6.9 mphClear
5:53 AM46.0 °F19.9 °F35 %30.03 in10.0 miNorth (360°)3.5 mphClear
6:53 AM46.0 °F19.0 °F34 %30.06 in10.0 miCalmClear
7:53 AM42.1 °F30.0 °F62 %30.08 in10.0 miCalmClear
8:53 AM48.0 °F21.0 °F34 %30.10 in10.0 miNorth (10°)5.8 mphClear
9:53 AM50.0 °F16.0 °F26 %30.12 in10.0 miNNE (20°)10.4 mphClear
10:53 AM52.0 °F16.0 °F24 %30.12 in10.0 miNorth (10°)12.7 mphClear
11:53 AM53.1 °F16.0 °F23 %30.10 in10.0 miNorth (350°)10.4 mphMostly Cloudy
12:53 PM55.0 °F17.1 °F23 %30.07 in10.0 miCalmMostly Cloudy
1:53 PM57.9 °F15.1 °F19 %30.04 in10.0 miCalmPartly Cloudy
2:53 PM57.9 °F17.1 °F20 %29.99 in10.0 miCalmPartly Cloudy
3:53 PM55.9 °F21.9 °F27 %29.94 in10.0 miESE (110°)6.9 mphPartly Cloudy
4:53 PM54.0 °F24.1 °F31 %29.91 in10.0 miESE (110°)6.9 mphOvercast
5:53 PM52.0 °F27.0 °F38 %29.91 in10.0 miSE (140°)5.8 mphOvercast
6:53 PM52.0 °F27.0 °F38 %29.91 in10.0 miSE (140°)4.6 mphOvercast
7:53 PM51.1 °F30.0 °F44 %29.91 in10.0 miCalmOvercast
8:53 PM50.0 °F33.1 °F52 %29.87 in10.0 miCalmOvercast
9:53 PM46.9 °F35.1 °F63 %29.86 in10.0 miCalmPartly Cloudy
10:53 PM43.0 °F34.0 °F71 %29.85 in10.0 miCalmClear
11:53 PM41.0 °F36.0 °F82 %29.82 in10.0 miCalmClear
Hourly data recorded from KILM, located miles away from Wilmington, North Carolina







STORIES FROM OUR PARTNERS